SCP
-0 -0 -0 -0 -0 -0 -0 -0 -0 -0 -0 -0 0 0 0 -0 -0 -0 -0 -0 -0 -0 -0 -0 -0 -0 -0 -0 -0 -0 -0 -0 -0 -0 -0 -0 -0 -0 -0 -0 0 -0 -0
-0 -0 -0 -0 -0 -0 -0 -0 -0 -0 -0 -0 -0 -0 -0 -0 -0 -0 -0 -0 -0 -0 -0 -0 -0 -0 -0 -0 -0 -0 -0 0 0 -0 -0 0 0 0 0 -0 -0 0 -0
-0 -0 -0 -0 -0 -0 -0 -0 -0 -0 -0 -0 -0 -0 -0 -0 -0 -0 -0 -0 -0 -0 -0 -0 -0 -0 -0 -0 -0 -0 0 0 -0 -0 0 -0 -0 0 0 -0 -0 0 0
-0 -0 -0 -0 -0 -0 -0 -0 0 0 -0 -0 -0 -0 -0 -0 -0 -0 -0 -0 -0 -0 -0 -0 -0 -0 -0 -0 -0 -0 -0 -0 0 0 -0 -0 -0 0 0 -0 -0 0 0
-0 -0 -0 -0 -0 -0 -0 -0 -0 0 -0 -0 -0 -0 0 -0 -0 -0 -0 -0 -0 -0 -0 -0 -0 -0 -0 -0 -0 -0 -0 -0 0 0 0 -0 -0 0 -0 -0 0 0 0
-0 -0 -0 -0 -0 -0 -0 -0 -0 0 -0 -0 -0 -0 -0 0 0 -0 -0 -0 -0 -0 -0 -0 -0 -0 -0 -0 0 0 0 0 0 0 0 0 -0 0 0 -0 0 0 0
-0 -0 -0 -0 -0 -0 -0 -0 -0 -0 -0 -0 -0 -0 -0 0 0 0 0 0 -0 -0 -0 0 0 0 0 0 0 0 0 0 0 0 0 0 -0 0 0 0 0 0 0
-0 -0 -0 -0 -0 -0 -0 -0 -0 -0 -0 -0 -0 -0 -0 -0 -0 0 0 0 0 0 0 0 0 0 0 0 0 0 -0 -0 -0 0 0 0 -0 0 0 0 0 0 -0
-0 0 0 0 -0 -0 0 -0 0 0 -0 -0 -0 -0 -0 -0 -0 -0 -0 0 0 0 0 0 0 0 0 0 0 -0 -0 -0 -0 -0 0 0 0 0 0 0 0 0 -0
0 0 0 0 0 0 0 0 0 0 0 0 0 -0 -0 -0 -0 -0 -0 -0 -0 -0 -0 -0 -0 0 0 0 0 -0 -0 -0 0 -0 0 0 0 0 0 0 0 0 -0
0 0 0 0 0 0 0 0 0 0 0 0 0 0 0 0 0 0 0 -0 -0 -0 -0 0 0 0 0 0 0 0 -0 0 0 0 0 0 0 0 0 0 0 -0 -0
0 0 0 0 0 0 0 0 0 0 0 0 0 0 0 0 0 0 0 0 0 0 0 0 0 0 0 0 0 0 0 0 0 0 0 0 0 0 0 0 0 -0 -0
-0 0 0 0 0 0 0 0 0 0 0 0 0 0 0 0 0 0 0 0 0 0 0 0 0 0 0 0 0 0 0 0 0 0 0 0 0 0 0 0 0 -0 -0
-0 -0 -0 -0 -0 0 0 0 0 -0 -0 0 0 0 0 0 0 0 0 0 0 0 0 0 0 0 0 0 0 0 0 0 0 0 0 0 0 0 0 0 0 -0 -0
-0 0 -0 -0 -0 -0 -0 0 0 -0 -0 -0 -0 -0 -0 0 0 0 0 0 0 0 0 0 0 0 0 0 0 0 0 0 0 0 0 0 0 0 0 0 -0 -0 -0
0 0 0 -0 0 -0 -0 -0 0 0 -0 -0 -0 -0 -0 -0 0 0 0 0 0 0 0 0 0 0 0 0 0 0 0 0 0 0 0 0 0 0 0 0 0 -0 -0
0 0 0 0 0 0 0 0 0 0 0 0 0 0 0 0 0 0 0 0 0 0 0 0 0 0 0 0 0 0 0 0 0 0 0 0 0 0 0 0 0 0 0
0 0 0 0 0 0 0 0 0 0 0 0 0 0 0 0 0 0 0 0 0 0 0 0 0 0 0 0 0 0 0 0 0 0 0 0 0 0 0 0 0 0 0
0 0 0 0 0 0 0 0 0 0 0 0 0 0 0 0 0 0 0 0 0 0 0 0 0 0 0 0 0 0 0 0 0 0 0 0 0 0 0 0 0 0 0
0 0 0 0 0 0 0 0 0 0 0 0 0 0 0 0 0 0 0 0 0 0 0 0 0 0 0 0 0 0 0 0 0 0 0 0 0 0 0 0 0 0 0
0 0 0 0 0 0 0 0 0 0 0 0 0 0 0 0 0 0 0 0 0 0 0 0 0 0 0 0 0 0 0 0 0 0 0 0 0 0 0 0 0 0 0
0 0 0 0 0 0 0 0 0 0 0 0 0 0 0 0 0 0 0 0 0 0 0 0 0 0 0 0 0 0 0 0 0 0 0 0 0 0 0 0 0 0 0
0 0 0 0 0 0 0 0 0 0 0 0 0 0 0 0 0 0 0 0 0 0 0 0 0 0 0 0 0 0 0 0 0 0 0 0 0 0 0 0 0 0 0
0 0 0 0 0 0 0 0 0 0 0 0 0 0 0 0 0 0 0 0 0 0 0 0 0 0 0 0 0 0 0 0 0 0 0 0 0 0 0 0 0 0 0
0 0 0 0 0 0 0 0 0 0 0 0 0 0 0 0 0 0 0 0 0 0 0 0 0 0 0 0 0 0 0 0 0 0 0 0 0 0 0 0 0 0 0
0 0 0 0 0 0 0 0 0 0 0 0 0 0 0 0 0 0 0 0 0 0 0 0 0 0 0 0 0 0 0 0 0 0 0 0 0 0 0 0 0 0 0
Wind_Speed_500mb
33 32 34 38 39 36 31 30 33 35 31 34 33 29 28 27 26 25 22 19 19 18 25 24 19 22 24 26 29 32 32 34 41 41 32 35 34 35 38 39 40 40 41
38 38 38 39 38 35 33 36 37 32 28 26 25 23 22 22 21 19 16 12 15 18 20 20 21 26 30 31 34 37 37 35 34 39 32 31 34 36 37 36 35 37 37
41 43 42 43 39 38 38 38 36 29 23 23 24 18 18 22 21 21 21 17 24 24 27 23 25 27 29 31 35 39 38 29 26 29 29 27 31 32 33 33 34 33 32
45 44 46 46 42 40 39 38 32 25 18 23 23 21 21 23 24 26 30 28 26 26 31 30 24 28 29 30 30 31 33 27 21 24 27 27 27 29 28 29 30 30 30
47 44 45 45 43 41 39 36 30 27 13 16 22 22 27 27 31 29 31 29 23 24 25 25 26 26 27 27 27 25 24 27 17 12 21 23 24 25 25 25 26 26 25
49 45 44 44 42 40 38 36 32 23 13 14 22 24 25 26 28 29 31 26 20 23 22 20 22 23 23 22 22 20 19 21 14 18 19 19 19 21 21 21 21 22 22
50 46 45 43 41 40 39 38 34 27 19 10 20 22 21 25 24 27 26 26 21 18 19 18 18 17 18 17 17 15 14 14 13 11 14 15 16 16 16 17 16 17 17
48 47 45 42 40 40 40 37 33 26 21 18 26 24 26 23 20 21 23 22 20 16 15 14 13 12 12 12 12 11 9 8 9 9 10 11 12 12 12 12 11 12 12
38 44 45 43 39 37 37 36 32 27 24 21 19 25 23 22 22 19 19 16 13 14 12 11 9 7 8 8 8 8 6 3 4 4 6 7 9 9 8 8 8 8 7
36 34 45 45 43 41 40 36 33 29 24 24 22 19 18 21 22 21 15 15 11 10 8 7 5 4 5 5 4 3 1 3 3 4 5 6 7 8 8 7 6 6 6
39 39 48 46 44 41 38 37 34 30 20 19 23 18 14 14 15 13 11 9 6 6 6 6 6 5 3 4 4 4 4 6 6 8 8 8 8 9 9 10 10 10 9
42 41 45 43 41 40 39 37 35 32 26 22 19 18 16 14 17 16 14 11 7 4 5 6 6 5 6 7 7 7 5 8 9 10 11 9 9 10 11 12 12 14 13
41 37 36 36 35 36 39 36 35 34 30 27 25 22 19 20 20 16 17 14 11 10 11 10 9 8 9 10 11 11 13 14 14 15 15 12 12 13 14 15 15 16 16
44 38 30 28 30 34 30 32 32 32 31 29 27 26 25 27 24 20 19 17 18 17 16 15 15 13 15 15 15 18 20 20 18 18 19 18 17 17 16 17 18 18 17
49 47 41 36 32 35 28 29 28 31 30 27 29 29 28 30 26 24 23 23 20 18 18 17 18 18 18 18 20 21 20 19 19 17 19 19 18 17 17 19 20 20 20
50 49 51 45 41 40 37 35 30 26 26 29 31 29 31 31 28 27 27 25 22 21 19 18 19 20 21 22 21 21 21 21 20 19 19 20 20 20 21 22 24 25 25
56 48 51 53 48 47 44 39 34 30 28 27 27 28 27 28 28 27 26 27 24 22 23 23 23 25 26 26 26 26 28 27 25 23 24 24 25 26 26 27 28 29 30
59 59 55 55 54 50 47 43 39 37 37 35 33 34 33 31 30 31 30 28 26 28 29 30 30 31 32 34 35 33 31 30 26 26 27 26 25 25 26 28 30 32 31
64 63 62 60 65 55 49 46 46 44 46 44 40 39 38 35 35 38 38 34 33 34 35 36 36 37 38 37 34 29 29 33 35 37 36 32 31 30 28 30 33 32 28
57 54 56 61 52 66 55 50 49 48 46 47 48 47 45 42 40 42 44 42 41 41 42 43 40 39 38 36 35 36 35 37 42 40 37 35 33 32 31 34 36 29 24
52 54 53 59 52 52 68 61 60 56 53 52 53 45 44 44 42 43 44 44 45 47 46 44 43 41 41 38 42 45 43 43 42 32 27 23 31 32 35 42 34 29 27
50 53 46 50 51 49 56 69 63 56 53 54 52 48 46 48 46 46 46 46 48 49 49 48 47 49 49 41 45 39 36 38 34 25 26 23 24 31 38 36 31 31 31
48 47 48 45 44 44 42 59 64 59 56 55 57 52 53 52 53 53 50 50 50 52 57 52 49 53 52 46 45 41 17 15 15 17 17 19 27 33 36 34 34 35 36
45 42 43 43 43 44 42 43 53 63 64 66 62 51 50 54 55 59 60 57 56 57 61 56 53 53 54 52 49 54 53 51 28 19 23 30 33 37 43 41 41 42 39
43 47 47 45 47 46 46 46 46 55 59 61 58 54 52 55 60 63 67 65 67 66 65 65 62 60 56 55 56 54 52 54 56 63 51 42 42 45 46 47 46 49 45
37 45 46 50 54 59 56 54 59 59 61 63 64 63 62 58 56 60 66 71 69 73 73 71 72 70 67 63 61 61 61 60 58 61 64 67 64 60 59 55 53 55 51
Wind_Direction_500mb
173 170 159 153 149 147 147 140 136 136 133 131 129 131 132 133 132 132 132 135 127 113 99 95 93 87 86 86 82 82 81 77 73 60 68 77 74 73 75 73 80 77 79
162 165 156 151 148 147 145 141 139 141 138 133 131 136 148 154 157 152 142 136 146 103 103 102 100 92 88 88 90 89 80 68 66 60 57 71 74 72 72 75 76 76 76
165 158 153 149 146 146 146 142 139 141 144 146 130 124 137 148 157 153 139 135 108 106 101 97 100 103 93 95 97 91 82 72 63 66 66 69 72 71 72 71 73 73 70
159 154 154 151 146 145 145 145 141 138 148 137 127 125 127 133 129 131 126 120 108 118 105 99 105 103 95 95 101 103 105 100 72 52 62 67 70 71 71 71 72 72 69
161 155 154 154 150 148 147 149 147 143 161 146 130 127 128 129 129 127 123 120 123 127 128 114 102 101 97 96 101 102 99 102 108 61 64 66 69 73 72 70 70 71 70
162 159 158 155 155 154 154 154 154 150 167 153 136 132 131 134 140 133 129 129 133 125 131 116 105 98 98 96 99 99 92 101 86 75 66 66 66 70 70 71 71 70 69
164 164 164 160 160 161 162 162 163 167 180 204 144 137 148 140 141 142 140 139 139 132 121 117 108 104 100 99 97 96 88 88 96 57 67 64 59 62 66 68 68 68 67
166 168 168 166 165 166 170 171 177 184 208 213 156 157 151 150 153 149 152 156 151 141 125 121 118 115 107 100 95 93 87 69 70 53 54 55 51 48 50 55 58 61 61
169 172 173 173 172 171 174 180 188 199 210 183 166 166 169 161 165 162 174 181 173 153 146 144 136 127 112 104 98 91 89 64 53 26 28 27 32 28 28 28 33 39 40
179 187 183 180 181 180 180 184 188 195 211 175 170 184 178 167 168 172 179 177 182 181 170 161 159 150 135 134 130 135 176 259 288 293 338 352 354 347 353 352 349 347 352
193 196 190 189 188 187 188 189 190 199 198 181 181 184 172 170 180 198 203 212 193 194 180 190 184 197 192 211 213 219 258 267 278 301 313 318 319 324 320 321 324 322 319
196 188 194 193 192 192 192 194 195 202 207 200 200 195 189 185 185 193 205 209 203 200 205 208 211 217 228 230 238 242 272 288 299 303 299 304 303 306 306 304 307 306 306
199 191 193 197 199 201 202 202 204 206 212 214 211 210 209 208 206 205 212 219 227 233 233 233 235 242 255 271 279 301 303 303 306 293 300 306 299 297 296 296 298 298 298
199 199 205 206 209 204 200 205 208 209 211 216 211 209 209 211 219 222 230 234 242 242 243 244 248 249 260 266 286 289 290 289 285 285 289 291 290 289 287 289 290 291 293
200 196 201 208 216 209 215 210 215 217 217 215 212 210 210 215 222 230 240 237 240 240 242 252 256 260 264 275 277 278 279 280 281 283 284 287 288 286 285 284 283 283 282
207 202 200 204 215 217 221 222 224 220 223 224 226 217 216 219 226 229 235 239 239 247 253 257 267 269 271 272 273 277 284 284 285 286 283 282 282 281 280 280 279 279 279
208 207 204 202 207 218 227 227 224 224 227 234 240 236 244 240 232 234 240 246 252 254 257 258 259 263 266 270 273 275 277 277 280 284 286 282 281 279 278 275 276 274 272
199 204 202 204 207 213 221 225 221 224 235 238 239 240 241 245 246 244 244 248 250 253 256 258 261 262 266 268 270 272 276 282 286 286 283 280 276 276 277 277 276 275 272
209 213 218 215 211 210 215 221 223 220 228 237 239 242 244 243 244 248 252 255 254 255 257 258 258 261 263 269 273 280 280 285 287 288 285 279 269 265 273 277 272 269 275
218 221 231 223 217 215 214 217 219 220 222 228 237 238 240 244 246 246 249 251 253 255 256 257 258 257 263 271 276 274 277 276 281 283 281 274 266 266 268 272 265 264 268
223 223 224 217 218 215 215 214 220 224 225 229 233 239 241 245 245 246 247 248 249 253 260 254 259 262 264 268 269 273 279 280 281 278 269 272 260 265 272 265 257 260 266
223 226 225 225 226 228 222 224 226 231 233 236 241 243 245 247 250 251 252 251 251 252 254 251 254 261 264 259 257 272 287 291 294 272 263 263 271 264 262 250 255 262 267
214 223 225 232 233 233 231 226 227 232 237 239 242 242 240 246 253 257 257 255 252 250 256 257 258 254 260 256 252 248 258 257 290 283 264 257 262 254 243 256 273 270 269
214 216 224 232 240 242 239 235 233 234 233 240 248 258 254 250 251 256 261 260 257 254 256 259 258 260 255 254 251 248 249 254 265 279 247 242 253 249 254 254 257 257 262
204 212 216 219 229 241 249 253 248 250 253 258 263 261 261 258 256 257 259 261 261 257 255 256 256 255 258 252 251 256 253 252 255 254 261 256 256 256 252 250 253 256 260
202 213 211 213 216 222 225 233 240 252 260 258 262 264 268 268 264 261 261 260 261 260 257 257 255 255 255 256 253 252 252 252 253 250 252 255 257 253 251 252 251 262 262
Wind_Speed_850mb
33 32 34 38 39 36 31 30 33 35 31 34 33 29 28 27 26 25 22 19 19 18 25 24 19 22 24 26 29 32 32 34 41 41 32 35 34 35 38 39 40 40 41
38 38 38 39 38 35 33 36 37 32 28 26 25 23 22 22 21 19 16 12 15 18 20 20 21 26 30 31 34 37 37 35 34 39 32 31 34 36 37 36 35 37 37
41 43 42 43 39 38 38 38 36 29 23 23 24 18 18 22 21 21 21 17 24 24 27 23 25 27 29 31 35 39 38 29 26 29 29 27 31 32 33 33 34 33 32
45 44 46 46 42 40 39 38 32 25 18 23 23 21 21 23 24 26 30 28 26 26 31 30 24 28 29 30 30 31 33 27 21 24 27 27 27 29 28 29 30 30 30
47 44 45 45 43 41 39 36 30 27 13 16 22 22 27 27 31 29 31 29 23 24 25 25 26 26 27 27 27 25 24 27 17 12 21 23 24 25 25 25 26 26 25
49 45 44 44 42 40 38 36 32 23 13 14 22 24 25 26 28 29 31 26 20 23 22 20 22 23 23 22 22 20 19 21 14 18 19 19 19 21 21 21 21 22 22
50 46 45 43 41 40 39 38 34 27 19 10 20 22 21 25 24 27 26 26 21 18 19 18 18 17 18 17 17 15 14 14 13 11 14 15 16 16 16 17 16 17 17
48 47 45 42 40 40 40 37 33 26 21 18 26 24 26 23 20 21 23 22 20 16 15 14 13 12 12 12 12 11 9 8 9 9 10 11 12 12 12 12 11 12 12
38 44 45 43 39 37 37 36 32 27 24 21 19 25 23 22 22 19 19 16 13 14 12 11 9 7 8 8 8 8 6 3 4 4 6 7 9 9 8 8 8 8 7
36 34 45 45 43 41 40 36 33 29 24 24 22 19 18 21 22 21 15 15 11 10 8 7 5 4 5 5 4 3 1 3 3 4 5 6 7 8 8 7 6 6 6
39 39 48 46 44 41 38 37 34 30 20 19 23 18 14 14 15 13 11 9 6 6 6 6 6 5 3 4 4 4 4 6 6 8 8 8 8 9 9 10 10 10 9
42 41 45 43 41 40 39 37 35 32 26 22 19 18 16 14 17 16 14 11 7 4 5 6 6 5 6 7 7 7 5 8 9 10 11 9 9 10 11 12 12 14 13
41 37 36 36 35 36 39 36 35 34 30 27 25 22 19 20 20 16 17 14 11 10 11 10 9 8 9 10 11 11 13 14 14 15 15 12 12 13 14 15 15 16 16
44 38 30 28 30 34 30 32 32 32 31 29 27 26 25 27 24 20 19 17 18 17 16 15 15 13 15 15 15 18 20 20 18 18 19 18 17 17 16 17 18 18 17
49 47 41 36 32 35 28 29 28 31 30 27 29 29 28 30 26 24 23 23 20 18 18 17 18 18 18 18 20 21 20 19 19 17 19 19 18 17 17 19 20 20 20
50 49 51 45 41 40 37 35 30 26 26 29 31 29 31 31 28 27 27 25 22 21 19 18 19 20 21 22 21 21 21 21 20 19 19 20 20 20 21 22 24 25 25
56 48 51 53 48 47 44 39 34 30 28 27 27 28 27 28 28 27 26 27 24 22 23 23 23 25 26 26 26 26 28 27 25 23 24 24 25 26 26 27 28 29 30
59 59 55 55 54 50 47 43 39 37 37 35 33 34 33 31 30 31 30 28 26 28 29 30 30 31 32 34 35 33 31 30 26 26 27 26 25 25 26 28 30 32 31
64 63 62 60 65 55 49 46 46 44 46 44 40 39 38 35 35 38 38 34 33 34 35 36 36 37 38 37 34 29 29 33 35 37 36 32 31 30 28 30 33 32 28
57 54 56 61 52 66 55 50 49 48 46 47 48 47 45 42 40 42 44 42 41 41 42 43 40 39 38 36 35 36 35 37 42 40 37 35 33 32 31 34 36 29 24
52 54 53 59 52 52 68 61 60 56 53 52 53 45 44 44 42 43 44 44 45 47 46 44 43 41 41 38 42 45 43 43 42 32 27 23 31 32 35 42 34 29 27
50 53 46 50 51 49 56 69 63 56 53 54 52 48 46 48 46 46 46 46 48 49 49 48 47 49 49 41 45 39 36 38 34 25 26 23 24 31 38 36 31 31 31
48 47 48 45 44 44 42 59 64 59 56 55 57 52 53 52 53 53 50 50 50 52 57 52 49 53 52 46 45 41 17 15 15 17 17 19 27 33 36 34 34 35 36
45 42 43 43 43 44 42 43 53 63 64 66 62 51 50 54 55 59 60 57 56 57 61 56 53 53 54 52 49 54 53 51 28 19 23 30 33 37 43 41 41 42 39
43 47 47 45 47 46 46 46 46 55 59 61 58 54 52 55 60 63 67 65 67 66 65 65 62 60 56 55 56 54 52 54 56 63 51 42 42 45 46 47 46 49 45
37 45 46 50 54 59 56 54 59 59 61 63 64 63 62 58 56 60 66 71 69 73 73 71 72 70 67 63 61 61 61 60 58 61 64 67 64 60 59 55 53 55 51
Wind_Direction_850mb
173 170 159 153 149 147 147 140 136 136 133 131 129 131 132 133 132 132 132 135 127 113 99 95 93 87 86 86 82 82 81 77 73 60 68 77 74 73 75 73 80 77 79
162 165 156 151 148 147 145 141 139 141 138 133 131 136 148 154 157 152 142 136 146 103 103 102 100 92 88 88 90 89 80 68 66 60 57 71 74 72 72 75 76 76 76
165 158 153 149 146 146 146 142 139 141 144 146 130 124 137 148 157 153 139 135 108 106 101 97 100 103 93 95 97 91 82 72 63 66 66 69 72 71 72 71 73 73 70
159 154 154 151 146 145 145 145 141 138 148 137 127 125 127 133 129 131 126 120 108 118 105 99 105 103 95 95 101 103 105 100 72 52 62 67 70 71 71 71 72 72 69
161 155 154 154 150 148 147 149 147 143 161 146 130 127 128 129 129 127 123 120 123 127 128 114 102 101 97 96 101 102 99 102 108 61 64 66 69 73 72 70 70 71 70
162 159 158 155 155 154 154 154 154 150 167 153 136 132 131 134 140 133 129 129 133 125 131 116 105 98 98 96 99 99 92 101 86 75 66 66 66 70 70 71 71 70 69
164 164 164 160 160 161 162 162 163 167 180 204 144 137 148 140 141 142 140 139 139 132 121 117 108 104 100 99 97 96 88 88 96 57 67 64 59 62 66 68 68 68 67
166 168 168 166 165 166 170 171 177 184 208 213 156 157 151 150 153 149 152 156 151 141 125 121 118 115 107 100 95 93 87 69 70 53 54 55 51 48 50 55 58 61 61
169 172 173 173 172 171 174 180 188 199 210 183 166 166 169 161 165 162 174 181 173 153 146 144 136 127 112 104 98 91 89 64 53 26 28 27 32 28 28 28 33 39 40
179 187 183 180 181 180 180 184 188 195 211 175 170 184 178 167 168 172 179 177 182 181 170 161 159 150 135 134 130 135 176 259 288 293 338 352 354 347 353 352 349 347 352
193 196 190 189 188 187 188 189 190 199 198 181 181 184 172 170 180 198 203 212 193 194 180 190 184 197 192 211 213 219 258 267 278 301 313 318 319 324 320 321 324 322 319
196 188 194 193 192 192 192 194 195 202 207 200 200 195 189 185 185 193 205 209 203 200 205 208 211 217 228 230 238 242 272 288 299 303 299 304 303 306 306 304 307 306 306
199 191 193 197 199 201 202 202 204 206 212 214 211 210 209 208 206 205 212 219 227 233 233 233 235 242 255 271 279 301 303 303 306 293 300 306 299 297 296 296 298 298 298
199 199 205 206 209 204 200 205 208 209 211 216 211 209 209 211 219 222 230 234 242 242 243 244 248 249 260 266 286 289 290 289 285 285 289 291 290 289 287 289 290 291 293
200 196 201 208 216 209 215 210 215 217 217 215 212 210 210 215 222 230 240 237 240 240 242 252 256 260 264 275 277 278 279 280 281 283 284 287 288 286 285 284 283 283 282
207 202 200 204 215 217 221 222 224 220 223 224 226 217 216 219 226 229 235 239 239 247 253 257 267 269 271 272 273 277 284 284 285 286 283 282 282 281 280 280 279 279 279
208 207 204 202 207 218 227 227 224 224 227 234 240 236 244 240 232 234 240 246 252 254 257 258 259 263 266 270 273 275 277 277 280 284 286 282 281 279 278 275 276 274 272
199 204 202 204 207 213 221 225 221 224 235 238 239 240 241 245 246 244 244 248 250 253 256 258 261 262 266 268 270 272 276 282 286 286 283 280 276 276 277 277 276 275 272
209 213 218 215 211 210 215 221 223 220 228 237 239 242 244 243 244 248 252 255 254 255 257 258 258 261 263 269 273 280 280 285 287 288 285 279 269 265 273 277 272 269 275
218 221 231 223 217 215 214 217 219 220 222 228 237 238 240 244 246 246 249 251 253 255 256 257 258 257 263 271 276 274 277 276 281 283 281 274 266 266 268 272 265 264 268
223 223 224 217 218 215 215 214 220 224 225 229 233 239 241 245 245 246 247 248 249 253 260 254 259 262 264 268 269 273 279 280 281 278 269 272 260 265 272 265 257 260 266
223 226 225 225 226 228 222 224 226 231 233 236 241 243 245 247 250 251 252 251 251 252 254 251 254 261 264 259 257 272 287 291 294 272 263 263 271 264 262 250 255 262 267
214 223 225 232 233 233 231 226 227 232 237 239 242 242 240 246 253 257 257 255 252 250 256 257 258 254 260 256 252 248 258 257 290 283 264 257 262 254 243 256 273 270 269
214 216 224 232 240 242 239 235 233 234 233 240 248 258 254 250 251 256 261 260 257 254 256 259 258 260 255 254 251 248 249 254 265 279 247 242 253 249 254 254 257 257 262
204 212 216 219 229 241 249 253 248 250 253 258 263 261 261 258 256 257 259 261 261 257 255 256 256 255 258 252 251 256 253 252 255 254 261 256 256 256 252 250 253 256 260
202 213 211 213 216 222 225 233 240 252 260 258 262 264 268 268 264 261 261 260 261 260 257 257 255 255 255 256 253 252 252 252 253 250 252 255 257 253 251 252 251 262 262